Location: Frankfurt+am+Main
(50.1100°N, 8.4815°E)
Time: 14:47:34
(UTC+01:00)

ISS - Pass Details

Date: 12 November 2017
Orbit: 402 x 407 km, 51.6° (Epoch: 19 November)

Event Time Altitude Azimuth Distance (km) Brightness Sun altitude
Exits shadow 04:20:03 12° 81° (E) 1,371 -0.3 -31.1°
Drops below altitude 10° 04:20:16 10° 82° (E) 1,457 -0.1 -31.0°
Sets 04:22:21 0° 85° (E) 2,317 1.2 -30.7°
